Flag for Germany Weather past 2 weeks in Bad Oldesloe, Schleswig-Holstein, Germany

Now
36 °F

Partly sunny.


Feels Like: 29 °F
Forecast: 32 / 44 °F
Wind: 9 mph from Southwest

Location: Luebeck-Blankensee

Current Time: Mar 4, 2015 at 9:05:23 AM

Latest Report: Mar 4, 2015 at 8:20 AM


Visibility: N/A

Pressure: 29.98 "Hg

Humidity: 87%

Dew point: 32 °F

Location of Bad OldesloeLocation

Historic Weather in Bad Oldesloe — Graph

°F

Bad Oldesloe temperature yesterday

Maximum temperature yesterday: 45 °F (at 12:50 PM)
Minimum temperature yesterday: 34 °F (at 5:50 PM)
Average temperature yesterday: 39 °F

Past Weeks' High & Low Weather Summary

 TemperatureHumidityPressure
High48 °F (Feb 26, 3:20 PM)100% (Feb 17, 7:50 PM)30.69 "Hg (Feb 17, 7:50 PM)
Low28 °F (Feb 17, 7:20 AM)53% (Feb 19, 2:20 PM)29.24 "Hg (Feb 21, 11:20 AM)
Average39 °F81%29.85 "Hg
* Reported Feb 17 7:20 AM — Mar 4 7:50 AM, Bad Oldesloe, Weather by CustomWeather, © 2015

Note: Actual official high and low records may vary slightly from our data, if they occured in-between our weather recording intervals... More about our weather records

Advertising

Bad Oldesloe weather history for previous 24 hours

 ConditionsComfort  
Time TempWeatherWind HumidityBarometerVisibility
7:50 AM
Wed, Mar 4
34 °FScattered clouds.10 mph93%29.98 "HgN/A
7:20 AM32 °FPassing clouds.9 mph93%29.98 "HgN/A
6:50 AM34 °FPassing clouds.7 mph93%29.98 "HgN/A
6:20 AM34 °FPassing clouds.9 mph93%29.98 "HgN/A
9:50 PM
Tue, Mar 3
36 °FPassing clouds.12 mph93%29.86 "HgN/A
9:20 PM36 °FPassing clouds.10 mph93%29.83 "HgN/A
8:50 PM37 °FLight rain. Low clouds.7 mph93%29.83 "Hg5 mi
8:20 PM36 °FLight snow. Passing clouds.9 mph93%29.83 "Hg6 mi
7:50 PM34 °FPassing clouds.5 mph100%29.83 "Hg5 mi
7:20 PM34 °FLight snow. Passing clouds.6 mph93%29.83 "Hg3 mi
6:50 PM34 °FSnow. Fog.5 mph93%29.83 "Hg1 mi
6:20 PM34 °FSnow. Fog.5 mph93%29.83 "Hg1 mi
5:50 PM34 °FSnow. Fog.5 mph93%29.86 "Hg1 mi
5:20 PM36 °FSnow. Partly sunny.9 mph93%29.86 "Hg3 mi
4:55 PM41 °FRain. Partly sunny.7 mph70%29.86 "Hg6 mi
4:20 PM43 °FBroken clouds.9 mph66%29.86 "HgN/A
3:50 PM43 °FPartly sunny.12 mph66%29.89 "HgN/A
3:20 PM45 °FPartly sunny.13 mph66%29.89 "HgN/A
2:50 PM43 °FBroken clouds.17 mph61%29.89 "HgN/A
2:20 PM45 °FScattered clouds.17 mph61%29.89 "HgN/A
1:50 PM43 °FScattered clouds.18 mph61%29.89 "HgN/A
1:20 PM45 °FScattered clouds.20 mph61%29.92 "HgN/A
12:50 PM45 °FScattered clouds.17 mph66%29.89 "HgN/A
12:20 PM43 °FScattered clouds.17 mph66%29.92 "HgN/A
11:50 AM41 °FScattered clouds.21 mph76%29.92 "HgN/A
11:20 AM41 °FScattered clouds.22 mph76%29.92 "HgN/A
10:50 AM41 °FScattered clouds.20 mph76%29.92 "HgN/A
10:20 AM39 °FScattered clouds.17 mph81%29.89 "HgN/A
9:50 AM39 °FScattered clouds.20 mph81%29.89 "HgN/A
9:20 AM39 °FPassing clouds.20 mph81%29.89 "HgN/A
Weather by CustomWeather, © 2015

See weather overviewHow to use our weather pages